Showing default

OV1-2, 1613

Orbit data source: Space-Track

OV1-2, 1613 is a payload satellite owned by USAF OAR (US) in LEO that was launched on Tue, 05 Oct 1965 UTC via an ATLAS D launch vehicle from the Air Force Western Test Range (AFWTR). Payload-class satellites include a variety of spacecraft equipped with specific instruments for various scientific and technological missions. These include communications satellites like Starlink; space stations such as the ISS; scientific satellites like the Hubble; Earth observation satellites from companies like Planet Labs, Umbra, and HawkEye 360; GPS; miniature CubeSats for education and research; and military/defense satellites.

Loading next visibility...
Identifier
1613, 1965-078A
Orbit
LEO
Country
Flag of USUS
Related business
Manufacturer
GD/Convair
Mission
Spacecraft
Bus & Motor
OV1, Unknown motor
Mass
86 kg wet, 86 kg dry
Launch date (UTC)
1965-10-05 (61 years ago)
Launch vehicle
ATLAS D
Launch site
Air Force Western Test Range (AFWTR)
Object type
Payload
Rocket body
Debris
Shape & HBR
Unknown
Radar Cross Section
Medium (>0.1 m² and <1 m²)

Expand to show TLE details & history
Last TLE update: 6 hours ago

TLE from 6 hours ago
0 OV1-2
1 01613U 65078A   26146.27382979  .00006881  00000-0  66405-3 0  9990
2 01613 144.2235 279.5475 1128493 220.5134 130.5831 13.01280681711862
Epoch: 2026-05-26T06:34Z
TLE epoch observation values (Epoch: 2026-05-26T06:34:18.893Z)
Latitude
-0.00002°
Longitude
-62.88082°
Altitude
1,866.912 km
Speed
6.672 km/s
True Right ascension
18h 38m 11s
True Declination
0° 00' 00"
Sunlit
Object was in full shadow at epoch
Visualization orbit readout
Latitude
Unknown
Longitude
Unknown
Altitude
Unknown
Speed
Unknown
Apparent Right ascension
Unknown
Apparent Declination
Unknown
Sunlit
N/A
Visualization observer readout
Local Sidereal Time
22:19:19
Azimuth
Unknown
Elevation
Unknown
Doppler factor
Unknown
Orbital elements
Apogee altitude
2,121.9 km
Perigee altitude
397.995 km
Semi-major axis
7,638.085 km
Eccentricity
0.11285
Inclination
144.2235°
RAAN
279.5475°
Arg. of periapsis
220.5134°
True anomaly
139.54011°
Mean anomaly
130.5831°
Eccentric anomaly
135.14363°
Mean motion
3.25137 °/min
Orbital period
110.72 mins
BSTAR
0.00066405
Loading maneuver chart data...
Computing Atmospheric mass density...
Loading historical data...
Loading historical data...
Loading historical data...
Loading historical data...
Loading historical data...
Loading historical data...
Loading historical data...
Other satellites on launch #78 in the year 1965 (1965-10-05 UTC)

Documentation

Showing up to 5 results
|